Kuchera_Ratio
0.0 0.0 0.0 0.0 0.0 0.0 0.0 0.0 0.0 0.0 0.0 0.0 0.0 0.0 0.0 0.0 0.0 0.0 0.0 0.0 0.0 0.0 0.0 0.0 0.0 0.0 0.0 0.0 0.0 0.0 0.0 0.0 0.0 0.0 0.0 0.0 0.0 0.0 0.0 0.0 0.0 0.0 0.0
0.0 0.0 0.0 0.0 0.0 0.0 0.0 0.0 0.0 0.0 0.0 0.0 0.0 0.0 0.0 0.0 0.0 0.0 0.0 0.0 0.0 0.0 0.0 0.0 0.0 0.0 0.0 0.0 0.0 0.0 0.0 0.0 0.0 0.0 0.0 0.0 0.0 0.0 0.0 0.0 0.0 0.0 0.0
0.0 0.0 0.0 0.0 0.0 0.0 0.0 0.0 0.0 0.0 0.0 0.0 0.0 0.0 0.0 0.0 0.0 0.0 0.0 0.0 0.0 0.0 0.0 0.0 0.0 0.0 0.0 0.0 0.0 0.0 0.0 0.0 0.0 0.0 0.0 0.0 0.0 0.0 0.0 0.0 0.0 0.0 0.0
0.0 0.0 0.0 0.0 0.0 0.0 0.0 0.0 0.0 0.0 0.0 0.0 0.0 0.0 0.0 0.0 0.0 0.0 0.0 0.0 0.0 0.0 0.0 0.0 0.0 0.0 0.0 0.0 0.0 0.0 0.0 0.0 0.0 0.0 0.0 0.0 0.0 0.0 0.0 0.3 0.0 0.0 0.0
0.0 0.0 0.0 0.0 0.0 0.0 0.0 0.0 0.0 0.0 0.0 0.0 0.0 0.0 0.0 0.0 0.0 0.0 0.0 0.0 0.0 0.0 0.0 0.0 0.0 0.0 0.0 0.0 0.0 0.0 0.0 0.0 0.0 0.0 0.0 0.0 0.0 0.0 1.3 0.0 0.7 0.0 0.0
0.0 0.0 0.0 0.0 0.0 0.0 0.0 0.0 0.0 0.0 0.0 0.0 0.0 0.0 0.0 0.0 0.0 0.0 0.0 0.0 0.0 0.0 0.0 0.0 0.0 0.0 0.0 0.0 0.0 0.0 0.0 0.0 1.1 1.7 0.8 0.3 0.0 0.7 0.0 2.5 2.8 3.9 3.8
0.0 0.0 0.0 0.0 0.0 0.0 0.0 0.0 0.0 0.0 0.0 0.0 0.0 0.0 0.0 0.0 0.0 0.0 0.0 0.0 1.9 2.2 1.5 0.2 0.0 0.0 0.0 0.0 0.0 0.0 0.0 0.0 0.0 0.0 0.8 1.5 1.6 2.4 4.2 4.4 4.4 5.1 4.9
0.0 0.0 0.0 0.0 0.0 0.0 0.0 0.0 0.0 0.0 0.0 0.0 0.0 0.0 0.0 0.0 0.0 0.0 0.3 2.5 2.0 1.6 1.7 1.0 0.8 1.0 1.0 0.6 0.7 1.1 0.4 0.0 0.0 0.0 0.6 1.3 1.6 0.0 2.4 4.0 5.7 6.1 4.3
0.0 0.0 0.0 0.0 0.0 0.0 0.0 0.0 0.3 1.2 1.7 2.3 0.7 0.0 1.9 0.1 0.0 0.0 2.9 3.1 2.4 2.3 2.3 0.0 0.0 0.0 0.0 0.2 1.3 1.0 1.5 2.4 0.7 1.2 1.6 1.6 1.7 1.5 1.5 5.3 7.7 7.8 7.9
0.0 0.0 0.0 0.0 0.0 0.0 0.0 2.1 1.8 2.3 5.0 3.7 5.4 4.5 0.0 2.0 0.0 0.0 0.5 0.8 3.4 1.9 0.9 0.3 0.0 0.0 0.0 0.2 2.1 3.0 2.8 3.4 4.3 4.5 4.3 3.4 3.5 3.5 3.1 4.8 8.5 9.6 9.9
0.0 0.0 0.0 0.0 0.0 0.0 2.0 2.6 3.5 4.8 5.7 5.4 6.0 5.6 3.7 0.7 0.0 0.0 0.0 0.8 0.9 2.1 2.5 2.6 1.7 0.4 0.0 0.1 1.1 4.1 4.8 3.6 4.1 5.9 6.1 6.2 6.2 4.2 4.1 4.7 5.7 11.7 11.8
0.0 0.0 0.0 0.0 0.0 0.0 2.6 4.0 5.1 5.6 5.8 4.2 1.9 1.5 0.1 0.0 0.0 0.0 0.0 0.0 0.0 2.4 3.6 2.6 2.2 2.2 1.3 0.7 1.3 0.6 1.4 4.3 6.1 7.0 7.9 7.8 8.9 9.6 9.3 6.4 7.9 8.6 8.1
0.0 0.0 0.0 0.0 0.0 0.3 2.8 4.6 5.4 4.2 4.0 1.8 2.7 2.7 2.3 1.5 0.3 0.0 0.0 0.0 0.0 2.4 2.6 1.1 1.0 2.3 2.7 3.4 2.6 2.0 2.9 7.5 7.7 9.5 9.5 9.4 10.4 10.3 10.0 9.9 10.3 9.9 9.5
0.0 0.0 0.0 0.7 1.6 2.0 2.7 3.1 4.2 5.0 4.0 2.4 3.5 3.9 1.6 2.1 2.3 1.8 1.8 0.4 0.0 1.1 1.4 5.1 3.0 2.7 2.7 3.7 5.5 6.0 7.6 7.1 8.5 9.8 10.0 8.7 8.6 12.2 12.5 11.4 12.8 12.4 12.0
0.0 0.0 0.6 0.5 1.4 3.8 3.7 3.6 3.9 0.7 0.0 1.9 1.9 1.7 2.4 3.6 2.6 0.0 0.7 2.7 2.6 2.1 2.9 5.6 7.1 7.4 8.0 7.5 7.8 7.4 7.5 7.9 10.6 10.4 11.3 11.0 9.4 10.9 11.6 11.7 12.3 13.0 13.2
0.0 0.0 1.6 3.4 2.6 4.1 5.0 5.0 0.0 0.0 0.0 0.0 0.0 0.0 1.2 0.0 0.0 0.0 0.0 0.0 0.0 0.0 5.6 7.6 8.0 7.8 8.2 7.9 8.2 8.6 8.5 8.6 10.9 11.5 12.3 12.8 12.9 12.9 12.9 12.8 13.1 13.6 13.8
1.8 3.5 3.3 3.1 3.3 4.2 4.6 5.3 5.5 1.9 0.0 0.0 0.0 0.0 0.0 0.0 0.0 0.0 0.0 0.0 0.0 0.2 6.4 7.3 8.2 8.0 8.3 9.5 10.3 10.6 11.5 11.7 12.5 12.9 13.0 13.4 13.8 14.2 13.7 14.2 14.1 13.7 13.7
0.8 0.5 3.0 3.3 2.8 3.6 3.8 4.2 2.3 2.3 5.4 5.0 0.2 0.0 0.0 0.0 0.0 0.0 0.0 0.0 5.0 2.8 5.9 7.1 8.2 8.7 9.1 10.2 10.9 11.7 12.2 12.4 12.8 13.3 13.5 14.0 14.7 15.1 15.3 15.1 14.8 14.7 14.6
0.9 2.2 2.2 2.7 3.2 2.7 4.2 4.2 2.1 2.4 3.5 3.6 5.1 1.9 0.0 0.0 0.0 0.0 0.0 4.3 6.5 6.8 6.5 7.2 7.6 8.5 9.7 10.7 11.4 12.1 12.7 12.7 13.0 13.7 14.1 14.8 14.9 14.9 15.5 15.5 15.4 12.8 13.1
0.0 0.5 0.9 3.5 4.1 4.2 4.5 5.3 4.8 4.6 4.7 4.3 4.2 4.4 4.6 2.2 4.9 4.3 4.2 4.9 5.6 5.8 6.0 7.6 7.6 8.3 9.8 10.1 10.9 11.6 12.5 12.6 13.4 14.3 14.2 13.9 13.9 14.5 15.4 15.5 14.7 15.0 14.4
0.0 0.0 0.0 3.3 4.3 4.4 4.7 5.3 5.2 5.4 5.6 5.7 5.0 4.2 1.2 5.7 5.6 5.4 5.4 4.5 4.4 5.1 6.2 6.4 7.4 8.2 9.4 9.8 10.8 11.8 12.4 12.9 13.1 13.6 13.4 13.4 13.7 14.2 13.7 14.0 14.3 14.3 14.7
0.0 0.7 1.3 3.1 4.4 5.5 5.4 5.3 5.9 6.8 7.3 8.4 7.6 5.5 1.0 3.1 5.8 5.3 5.0 4.6 4.7 4.6 5.2 6.6 7.9 8.2 9.0 10.3 11.2 12.2 12.8 13.3 13.2 13.4 13.5 13.2 13.4 13.7 13.9 14.4 14.5 14.6 14.7
2.2 3.2 4.0 3.7 4.6 3.6 5.1 5.9 6.6 6.6 6.7 7.0 7.8 9.0 8.6 7.7 7.7 7.3 5.9 5.4 6.1 7.0 7.0 7.5 8.4 9.1 9.0 9.6 10.0 11.4 12.6 12.9 12.6 12.4 13.1 13.0 13.5 14.0 14.2 14.7 14.8 15.0 15.0
3.2 4.7 5.5 5.8 6.3 6.5 7.0 7.3 7.7 7.0 8.5 8.6 8.5 8.5 8.9 8.9 8.4 8.0 7.3 6.0 7.5 8.1 7.4 8.1 9.1 10.7 10.2 10.2 11.0 11.7 12.1 12.0 12.1 12.5 12.9 13.4 13.9 13.7 13.9 14.5 14.8 15.1 14.9
3.7 4.6 6.0 6.4 6.9 6.2 6.9 6.7 7.2 7.1 7.0 7.3 7.1 7.6 7.9 8.2 8.3 8.2 8.5 6.9 9.9 11.0 9.5 9.9 10.3 10.7 11.5 11.7 11.2 11.0 11.1 9.4 12.7 13.3 13.6 13.8 14.7 15.2 15.2 15.1 14.9 14.8 14.9
3.3 3.6 4.0 5.4 6.2 6.3 7.1 7.4 7.2 7.2 7.8 7.3 7.6 7.9 8.2 8.8 9.0 9.0 10.2 11.1 11.2 11.4 11.9 10.7 10.8 11.5 11.2 11.3 12.0 12.4 9.6 8.9 10.5 8.8 12.0 13.7 14.8 15.1 14.7 14.8 14.6 14.6 14.6